GFSSGP_250_spd_132.txt.gz
Wind_Speed
45 46 50 48 45 44 45 46 47 44 41 41 38 36 30 27 29 19 29 35 31 33 32 30 26 24 25 23 19 19 20 22 23 24 24 24 23 20 18 18 20 21 22 22 25 25 26 26 28
47 45 43 46 47 43 45 48 47 46 45 41 39 43 35 37 29 35 31 28 30 33 35 35 35 33 35 34 30 26 23 24 25 26 25 25 23 20 21 19 21 24 26 28 28 30 31 32 31
51 50 46 44 45 44 49 48 47 46 46 43 46 42 39 43 30 38 36 32 32 36 35 35 37 37 36 36 34 26 23 23 23 24 25 27 24 23 23 24 26 26 28 31 32 34 36 35 38
57 55 52 47 47 52 51 51 49 49 44 38 45 40 40 41 32 41 39 38 37 37 36 36 37 38 37 35 33 28 26 26 27 27 28 29 31 31 31 30 29 30 30 32 34 36 38 38 41
63 61 56 51 54 55 56 54 53 50 46 46 48 46 42 37 35 41 42 42 42 41 39 39 39 38 36 35 34 30 26 27 29 31 32 33 35 37 36 35 34 34 33 34 36 37 39 40 39
67 66 61 58 60 62 61 59 57 54 52 51 51 49 49 41 41 41 38 39 40 41 42 42 41 39 37 33 35 35 34 33 33 37 37 37 37 40 40 41 39 38 37 38 39 39 40 41 40
75 74 68 67 65 66 68 65 62 60 56 54 55 54 54 48 44 47 44 44 46 46 44 44 45 45 45 41 41 43 48 44 45 44 42 42 43 44 43 45 45 44 43 43 43 44 43 43 44
80 78 74 70 71 72 75 73 70 65 64 61 60 57 59 57 50 49 53 50 49 51 53 53 52 48 50 51 53 54 55 53 52 51 50 50 49 49 50 49 49 50 50 50 49 48 49 48 47
89 84 75 78 80 80 80 79 77 73 70 69 68 65 62 61 58 53 63 57 55 56 57 58 58 55 57 60 62 63 61 59 57 57 57 58 58 57 55 56 55 54 55 54 54 56 54 55 54
94 91 86 92 90 88 87 85 85 79 74 74 76 71 69 70 66 63 69 66 62 60 61 62 64 64 65 66 68 68 67 65 65 66 65 63 62 62 64 64 64 65 63 62 62 60 61 62 63
96 90 99 98 98 97 94 91 91 86 78 77 81 78 78 77 72 71 72 70 64 65 65 66 68 69 71 72 72 73 74 71 70 70 69 69 69 71 72 72 71 70 70 70 72 73 71 69 69
93 94 101 101 104 103 99 97 94 92 89 84 88 84 82 82 80 78 75 74 64 48 72 70 75 78 79 79 75 74 77 78 76 73 72 73 76 78 78 77 77 77 78 78 79 79 78 78 77
88 94 99 103 105 105 105 104 103 98 96 93 91 90 86 85 90 88 85 80 76 72 71 81 83 92 87 83 78 77 78 79 81 81 82 83 82 82 82 83 82 83 84 85 85 85 85 84 82
94 96 95 98 100 102 104 107 110 104 104 101 98 95 92 91 94 93 91 86 88 74 65 90 112 111 102 88 85 87 84 85 87 89 89 89 90 91 92 90 90 90 91 93 93 92 90 88 85
89 92 95 94 93 94 102 102 100 102 106 108 105 104 100 101 101 97 91 89 92 70 69 84 105 99 61 81 95 96 94 95 96 95 94 96 95 92 96 94 95 96 95 94 91 89 89 87 87
94 93 87 75 84 87 99 91 92 100 103 103 103 107 107 105 107 101 93 92 86 70 68 94 99 111 113 97 98 110 99 100 103 100 97 98 100 98 99 95 95 93 93 94 91 94 94 92 92
101 90 85 83 83 89 93 82 91 101 101 98 97 99 101 103 103 103 101 100 88 75 75 74 91 101 105 88 94 99 96 98 97 99 96 97 96 94 94 91 93 90 90 89 87 92 95 96 98
100 99 97 95 95 101 100 87 90 94 95 94 94 94 98 94 91 94 96 93 92 84 61 82 81 97 97 105 97 82 86 95 95 96 95 94 94 95 94 94 93 96 100 103 104 106 105 103 106
113 120 115 106 103 106 103 92 94 94 94 91 86 85 88 88 89 92 95 91 93 88 68 70 97 82 59 63 67 76 81 86 90 96 94 94 93 90 87 90 85 88 84 79 81 82 80 82 82
121 114 116 113 112 111 106 97 95 97 94 94 91 86 86 83 78 79 83 82 84 85 75 78 87 87 83 92 89 79 77 81 86 85 81 78 76 77 76 74 71 71 70 70 67 67 69 72 73
125 127 120 116 114 116 111 108 101 98 93 96 92 89 87 82 77 75 77 78 77 78 50 63 80 114 103 84 74 72 73 73 78 71 70 69 68 65 62 60 58 56 56 60 61 63 61 64 66
131 124 122 123 121 120 117 115 107 99 93 96 95 89 86 82 77 74 74 77 77 77 87 96 92 87 85 77 75 72 72 77 67 66 68 66 66 58 54 54 52 53 54 53 53 52 55 56 59
129 127 130 128 127 122 120 120 109 106 97 97 92 85 85 82 78 74 74 72 73 74 73 74 74 74 74 72 71 75 76 67 66 67 66 63 52 44 45 46 49 46 52 46 47 49 49 48 50
126 128 132 133 129 131 118 122 109 107 94 89 92 88 84 82 77 72 71 70 70 74 69 68 74 74 67 70 70 70 66 66 67 66 60 58 45 48 43 43 46 46 44 42 39 41 43 43 42
119 121 123 123 129 126 118 115 107 92 90 83 92 90 86 80 77 72 69 64 61 66 62 64 72 68 67 69 68 65 65 65 64 64 56 56 54 51 49 38 38 35 40 41 41 40 41 44 42
103 110 106 113 117 120 112 118 91 75 77 85 98 96 89 83 77 73 71 66 60 59 57 67 65 64 67 71 69 67 64 58 62 62 59 57 55 60 55 51 47 46 51 48 52 52 47 46 45
92 101 95 98 106 112 117 114 107 93 85 95 88 90 90 86 81 77 75 71 57 53 63 60 57 58 63 65 62 61 60 62 60 62 60 58 58 54 55 57 50 45 57 58 59 60 58 57 60
73 87 91 93 96 108 106 104 95 87 93 92 89 88 90 88 85 83 75 63 53 67 62 62 58 58 60 60 60 60 61 61 58 58 57 55 55 55 55 59 54 49 53 54 58 59 60 60 62
60 67 75 83 89 99 104 92 83 90 102 94 95 90 93 92 91 80 71 64 63 63 64 62 59 55 56 57 57 59 61 59 57 56 58 55 56 53 55 57 57 52 53 55 55 61 63 66 63
52 57 62 70 79 86 93 100 91 86 102 109 106 96 98 91 87 81 77 70 72 66 65 63 60 57 57 57 58 59 56 57 55 57 58 57 54 53 56 57 59 59 60 58 58 57 60 62 65

GFSSGP_250_spd_135.txt.gz
Wind_Speed
53 54 51 49 46 39 42 42 44 40 39 39 37 38 34 31 32 31 28 16 23 22 24 25 24 24 23 21 23 22 21 22 19 21 22 21 23 22 24 22 18 16 17 20 22 24 27 29 30
56 54 52 49 46 43 47 48 47 47 44 42 41 42 44 35 30 28 37 34 22 31 27 29 27 28 27 24 24 27 31 32 27 22 20 20 22 23 22 21 19 20 20 19 22 25 29 31 34
51 53 51 50 49 45 51 53 52 51 49 45 48 48 46 34 31 35 41 32 27 21 31 33 31 29 31 31 30 31 33 30 29 25 22 25 25 25 26 27 27 25 26 28 29 29 30 31 32
55 50 48 43 52 55 56 54 55 53 51 45 51 48 46 40 34 38 45 36 38 29 34 30 31 32 30 31 31 33 33 31 29 27 27 28 30 32 32 33 32 31 32 34 35 35 35 36 36
61 55 50 46 50 54 58 59 59 56 50 45 48 48 45 42 43 38 43 39 32 37 43 37 31 31 30 29 30 32 32 32 30 29 30 32 34 35 36 36 36 37 38 38 39 39 38 39 39
64 63 58 55 56 55 56 58 58 53 51 47 47 50 47 45 41 41 46 43 35 36 39 36 34 32 32 35 35 34 33 33 35 36 35 39 40 41 41 41 40 42 45 45 45 46 46 47 47
72 71 65 62 60 59 62 64 64 60 56 52 51 54 51 44 45 44 43 43 39 36 34 34 33 36 36 35 36 35 35 40 41 45 50 46 46 48 48 46 47 48 50 50 51 52 53 53 53
80 77 71 67 66 67 71 71 70 67 61 59 56 54 54 53 50 46 47 42 44 44 42 39 40 41 42 41 42 43 44 47 48 53 56 53 54 54 51 53 55 59 58 56 56 58 58 59 59
88 79 74 74 77 78 78 76 76 76 68 65 60 56 57 55 49 44 51 51 49 50 47 49 50 51 51 51 50 50 53 54 56 58 59 61 62 61 62 62 63 63 64 64 66 67 67 68 67
92 88 81 89 85 84 83 81 85 82 76 69 68 65 64 58 54 51 52 56 56 55 53 54 55 56 57 58 60 66 66 64 63 63 63 63 65 65 67 68 69 70 71 71 72 72 72 74 76
97 88 99 93 92 92 91 89 91 87 82 74 72 73 74 66 60 56 56 60 58 59 60 63 63 66 62 61 63 68 66 73 71 67 68 70 67 70 71 70 72 72 73 75 77 78 81 82 83
97 96 102 102 102 98 97 94 90 93 87 79 77 82 80 75 71 64 64 66 61 60 73 71 64 81 63 61 65 68 78 84 76 70 70 71 73 72 72 73 72 72 76 81 83 85 88 88 88
93 97 100 104 107 105 107 102 98 96 94 88 84 87 85 84 74 75 76 74 69 68 42 54 54 46 62 68 77 78 90 87 81 85 76 79 78 74 76 79 80 81 85 88 89 92 92 94 94
100 102 102 103 103 105 108 110 107 100 103 99 93 92 90 87 80 83 87 90 78 72 76 80 82 81 70 76 81 85 65 69 81 82 86 82 81 80 83 81 84 85 92 94 93 95 96 96 95
102 104 104 100 100 103 109 110 103 105 110 108 104 101 98 93 91 90 95 96 85 80 76 78 83 77 78 80 53 47 60 87 87 87 77 78 81 94 94 87 88 87 92 95 97 94 94 91 92
100 101 98 91 97 101 106 99 97 106 111 112 110 107 104 100 96 98 102 101 92 84 79 79 80 76 83 85 84 89 89 92 92 90 82 71 66 71 77 85 84 87 92 92 86 82 84 86 89
105 94 91 86 89 97 105 97 102 105 108 107 108 108 105 103 101 104 108 101 99 92 84 82 83 84 84 86 87 90 93 75 77 74 70 75 78 79 69 72 78 76 81 88 88 89 93 94 96
103 103 101 98 95 100 102 96 93 100 102 99 101 102 100 98 98 103 111 108 104 97 94 92 86 85 89 88 89 93 88 84 72 53 56 57 61 67 72 75 71 71 72 77 73 75 82 86 84
119 119 115 109 104 106 105 98 88 96 101 99 98 95 91 92 95 98 103 102 98 96 96 93 93 85 87 86 55 55 61 63 65 64 61 63 64 64 58 66 66 59 63 63 67 70 74 75 72
125 123 120 114 110 111 108 102 91 98 95 92 91 89 86 86 87 90 97 93 93 90 90 86 85 83 68 34 40 54 65 70 73 71 69 69 65 64 62 58 59 64 67 71 61 66 68 65 65
124 121 119 120 118 120 114 114 102 102 96 96 92 87 82 79 75 79 88 88 89 88 87 85 83 83 60 63 63 71 75 72 76 70 65 75 72 63 57 61 65 67 69 65 70 69 63 61 53
130 123 115 119 123 123 120 121 109 107 105 99 96 89 78 78 77 76 81 76 77 75 72 71 76 84 86 87 95 96 80 79 79 76 72 70 63 60 63 62 62 67 63 61 67 62 58 53 45
127 131 129 126 131 125 124 130 118 116 113 102 95 87 83 79 77 78 80 80 78 71 66 67 70 69 69 78 75 76 79 80 73 70 68 63 62 63 62 64 62 64 65 69 71 61 56 49 47
126 134 132 134 132 130 120 132 128 117 113 106 95 93 87 82 81 80 80 80 78 74 66 66 69 66 67 66 73 75 79 71 67 68 66 65 64 63 63 66 65 66 66 69 66 62 55 46 43
121 124 130 129 136 134 120 127 126 116 114 103 92 92 93 88 82 78 77 80 74 73 67 65 67 65 62 65 71 76 70 69 69 70 71 69 67 66 66 67 68 67 66 69 64 58 54 47 49
104 120 121 128 122 125 126 132 129 113 106 103 105 102 98 90 85 81 77 80 73 70 69 67 69 66 69 69 68 69 72 69 69 66 67 64 65 67 67 68 67 65 64 68 62 59 59 56 60
91 97 104 115 116 116 116 130 131 126 117 106 103 97 94 90 91 87 82 80 70 64 63 64 65 65 61 58 55 56 57 59 59 61 62 65 65 66 65 65 64 63 61 62 60 59 54 54 55
75 83 87 94 100 106 111 106 116 126 119 110 103 100 96 94 90 91 82 73 67 64 62 67 64 59 58 56 54 54 56 56 55 56 58 60 63 63 60 60 64 60 59 58 59 59 56 53 56
58 66 71 79 86 97 99 101 104 96 107 109 105 99 98 100 96 88 77 69 66 63 64 70 61 58 58 57 55 55 56 55 56 55 56 58 60 60 61 61 61 61 61 60 57 58 60 61 59
46 51 57 65 74 81 90 87 94 91 98 111 106 102 98 100 93 86 75 67 66 63 69 67 63 60 60 58 56 55 57 57 56 55 55 57 58 60 60 61 63 64 64 65 63 60 61 61 61

GFSSGP_250_spd_138.txt.gz
Wind_Speed
55 54 50 49 45 42 46 45 41 45 43 44 43 42 37 34 35 34 30 23 21 22 22 25 20 20 20 21 18 18 18 13 11 17 19 15 15 15 16 17 17 18 18 18 19 23 24 26 29
55 56 54 52 44 42 47 49 45 47 47 43 41 39 39 33 32 33 38 28 28 14 20 26 25 29 21 21 20 20 21 21 19 21 18 17 14 16 17 19 20 22 24 22 23 24 27 30 32
57 56 58 55 44 41 50 52 53 52 49 49 47 41 38 34 32 33 34 32 30 29 28 23 29 33 25 24 29 27 25 24 25 24 22 20 21 21 22 24 25 27 27 26 26 29 32 31 33
56 59 60 55 50 49 54 56 57 57 53 50 49 46 43 39 37 36 34 39 34 33 34 27 25 35 25 25 28 29 28 28 27 25 25 28 29 28 27 28 29 31 32 33 33 34 35 37 39
58 54 53 59 56 56 57 60 60 62 59 53 52 47 45 42 42 40 39 37 35 35 38 36 36 31 25 28 30 30 29 28 26 28 29 32 32 31 32 35 35 38 38 38 39 41 41 43 44
62 60 54 57 65 65 63 66 65 64 63 58 53 50 47 46 42 43 41 39 38 39 38 39 37 32 28 29 29 28 29 30 31 34 35 34 35 39 44 43 43 44 46 46 45 47 50 51 50
69 67 61 60 62 62 68 71 69 71 63 56 55 49 47 48 46 36 38 42 40 42 44 40 35 33 33 34 32 32 32 31 32 33 35 41 44 47 49 51 50 51 52 50 52 54 56 55 55
76 72 66 63 67 66 73 71 74 69 64 59 49 43 45 48 48 37 39 44 49 45 44 43 39 34 35 36 37 39 40 39 40 41 43 46 49 51 53 57 58 59 60 59 59 59 60 60 62
83 76 71 69 73 76 76 73 75 75 68 61 53 45 44 45 45 43 44 52 52 49 48 48 46 42 42 45 45 48 47 46 46 48 52 54 55 55 59 63 65 65 66 66 66 67 67 68 69
88 81 77 87 80 81 81 77 81 78 72 68 61 56 51 48 50 50 51 54 57 54 54 54 50 50 53 54 56 53 51 51 52 52 53 54 54 58 63 66 70 70 69 73 71 71 72 73 71
93 84 94 89 88 88 87 83 89 82 75 74 70 66 58 53 55 58 56 58 60 61 55 53 56 58 58 58 58 59 58 59 57 56 51 54 61 63 78 81 77 77 77 76 77 74 74 74 77
99 92 94 98 98 96 92 93 90 86 84 81 78 73 66 61 65 65 63 66 67 65 62 57 57 60 65 63 62 63 63 63 64 57 62 66 67 77 73 74 74 80 82 90 85 79 79 78 81
97 97 100 104 103 101 104 97 97 89 92 89 84 80 72 72 72 71 70 68 70 69 67 62 61 63 66 56 62 55 56 50 56 66 66 67 54 51 52 62 69 82 85 92 92 86 89 87 91
101 103 103 104 104 104 107 107 106 95 100 96 91 86 81 82 83 84 78 74 73 71 70 65 67 63 65 59 45 59 72 79 66 62 61 58 55 68 76 80 79 77 72 74 79 84 91 93 92
107 107 106 100 103 106 113 110 100 107 109 105 97 92 88 91 92 92 86 80 78 77 73 71 71 72 76 73 76 78 66 76 70 67 74 74 72 71 77 86 85 78 77 75 77 81 74 69 75
106 107 103 100 106 107 113 101 105 110 114 112 105 98 94 98 100 98 93 88 83 82 82 81 78 80 81 78 78 76 85 79 73 76 78 75 73 79 82 83 61 55 57 59 58 61 62 68 77
109 98 98 103 105 110 113 98 110 111 114 114 111 106 103 104 106 104 101 94 90 88 86 85 84 85 84 82 80 79 81 77 78 82 83 72 76 74 74 67 72 66 57 63 73 70 68 77 74
105 107 107 101 104 111 115 106 105 111 114 113 112 110 108 109 111 109 107 104 97 95 92 91 91 93 90 86 87 87 81 84 88 87 78 71 69 60 64 61 66 70 74 75 79 71 75 74 70
121 119 115 110 112 115 112 108 110 113 114 112 111 106 105 108 109 109 109 108 104 101 99 99 99 98 96 94 92 92 92 91 83 72 69 66 70 63 60 66 64 60 59 67 69 69 69 64 64
131 126 118 114 115 118 113 105 106 110 115 111 106 104 102 104 101 102 105 104 99 98 98 98 96 98 97 99 96 94 92 89 68 65 71 71 65 58 67 70 55 52 54 59 62 67 65 63 65
138 133 123 115 119 117 118 114 104 101 103 104 105 101 97 99 97 96 96 98 98 95 94 93 93 90 92 92 91 83 82 78 72 62 54 53 58 65 68 59 54 56 62 61 64 64 65 68 70
133 132 131 130 128 120 125 120 113 110 108 104 99 94 85 83 89 94 92 92 88 83 80 79 82 83 84 84 80 71 70 64 68 62 65 65 59 69 73 63 68 66 65 67 64 66 66 71 70
125 129 130 132 133 129 127 128 111 113 113 107 102 93 84 82 81 83 79 79 79 75 73 70 71 71 71 71 71 70 68 73 76 78 82 77 81 77 67 73 76 69 68 68 65 67 69 70 67
121 127 127 129 128 138 125 135 114 115 107 106 103 95 85 86 87 86 80 78 75 71 69 67 69 67 67 64 63 62 63 64 72 87 91 84 82 74 75 79 71 66 67 68 68 68 70 66 65
106 109 122 128 129 128 121 135 122 114 111 107 100 96 94 91 90 87 83 80 76 71 69 66 69 67 66 65 62 62 63 64 63 71 75 73 72 72 73 67 69 69 68 68 67 69 68 65 62
99 103 108 113 122 121 118 135 121 108 112 112 107 101 98 98 95 90 88 82 78 75 74 71 69 68 66 65 65 64 59 63 69 73 69 70 70 67 64 61 65 67 65 64 63 64 64 64 59
86 92 99 105 108 118 121 123 117 114 114 117 111 103 98 100 101 95 92 87 85 79 76 73 71 71 67 63 59 60 64 67 67 68 70 70 65 62 59 64 64 61 61 61 61 65 66 65 66
70 77 85 93 97 103 104 116 117 115 116 119 113 108 101 100 98 93 90 85 81 79 76 72 73 72 65 63 62 64 64 62 61 61 63 62 59 58 64 62 60 56 57 58 61 64 67 66 68
58 63 68 78 85 92 91 96 103 105 123 124 118 113 108 103 100 95 88 78 75 77 73 71 70 70 66 61 59 59 60 59 60 60 60 57 55 61 62 61 56 57 57 59 61 66 67 70 71
48 52 56 60 68 78 85 81 91 97 109 116 124 115 111 107 102 96 91 86 81 74 69 67 68 69 65 61 59 62 63 62 62 60 59 60 60 61 61 58 58 59 61 63 65 68 69 72 75

GFSSGP_250_spd_141.txt.gz
Wind_Speed
55 55 51 46 42 42 44 41 42 42 42 37 35 31 33 34 32 34 31 28 26 25 21 27 24 23 27 23 23 21 18 19 19 16 13 17 13 12 13 15 16 15 15 17 19 20 21 22 25
56 55 55 51 45 43 49 48 45 48 43 40 39 34 33 35 35 38 35 33 28 29 30 25 28 21 24 24 22 21 20 17 21 21 20 19 16 15 19 19 20 20 19 20 21 21 23 25 27
56 56 59 55 47 43 52 56 57 51 46 45 40 38 38 36 37 36 36 34 33 33 32 26 23 24 28 26 33 29 27 26 26 27 25 24 22 20 22 22 21 21 23 25 26 28 29 31 33
58 57 57 56 51 50 56 61 60 60 56 52 45 44 40 40 40 40 39 40 37 31 30 34 36 33 28 25 37 38 29 28 28 27 26 26 25 25 25 24 25 24 28 30 34 35 37 39 39
61 60 57 57 55 55 58 64 63 61 58 54 49 46 46 45 44 41 42 41 39 35 35 41 39 37 37 29 34 34 28 27 26 29 27 28 28 29 31 31 32 37 41 43 42 40 40 43 46
65 63 59 59 58 59 59 68 69 64 61 59 54 52 48 50 50 46 48 45 42 39 37 38 40 38 37 38 40 33 26 27 27 30 33 33 32 35 36 37 42 44 49 49 51 55 57 54 51
69 66 60 62 66 63 67 70 69 69 65 63 57 55 52 51 49 51 47 46 41 39 41 40 39 40 36 36 35 31 31 31 31 32 31 31 34 35 40 44 47 49 51 54 57 61 62 62 62
76 73 66 62 61 66 73 72 72 74 70 60 53 52 55 53 51 53 50 43 47 44 43 41 38 40 40 38 36 31 31 33 36 36 36 36 39 43 45 46 50 54 55 54 60 66 69 68 67
83 78 68 66 68 71 77 79 76 76 72 62 50 50 57 55 53 51 54 53 49 48 45 42 41 41 41 43 46 42 41 42 42 44 44 43 46 48 46 48 49 52 52 59 67 71 68 70 69
89 81 74 78 79 78 80 77 79 79 77 66 62 50 55 55 54 55 56 59 57 48 46 49 48 46 47 45 47 48 46 48 49 49 52 51 52 54 55 53 56 57 64 61 57 55 60 64 73
95 86 89 86 86 86 87 81 83 77 74 77 69 61 56 54 56 58 58 57 60 59 53 51 50 46 48 50 53 56 55 57 57 57 55 54 57 54 53 57 58 63 57 55 59 71 69 68 74
103 98 97 95 94 92 92 92 85 81 76 81 77 72 63 59 57 59 59 58 59 65 62 57 54 53 51 51 53 54 56 57 55 59 55 53 47 52 55 63 59 56 60 69 74 79 79 83 85
104 100 102 103 102 99 101 95 93 82 84 85 82 79 73 69 65 61 60 62 66 70 67 63 61 58 57 58 58 57 57 56 58 56 54 58 60 61 65 59 64 69 74 79 79 81 80 72 69
107 107 107 105 105 106 105 104 100 85 91 91 89 86 83 78 74 68 66 69 76 74 72 71 67 65 64 63 64 60 57 52 53 60 60 63 70 62 72 74 73 77 77 79 70 68 59 59 62
112 110 107 106 108 109 110 107 93 101 100 99 96 94 91 87 81 74 75 76 79 78 75 75 75 72 70 70 69 67 64 61 70 73 71 71 75 75 81 77 74 78 78 64 60 61 66 72 71
116 114 112 107 110 110 115 102 102 109 108 106 103 103 97 95 90 84 86 86 84 85 83 81 80 76 74 73 75 72 70 70 73 76 79 77 74 75 77 78 80 76 67 68 67 68 75 74 77
117 115 112 110 114 113 117 101 108 114 111 109 108 108 107 102 98 95 94 94 90 88 84 85 84 83 81 80 77 77 79 78 80 82 83 79 78 78 81 84 87 78 73 65 66 70 74 72 65
113 115 117 114 113 119 116 109 111 116 117 114 113 112 111 108 106 105 103 99 95 91 88 88 88 88 88 87 85 82 83 83 84 85 87 86 84 86 86 83 78 77 67 64 67 66 60 57 62
129 126 121 119 115 116 116 115 114 116 118 117 116 114 114 111 109 108 105 102 98 97 95 94 93 95 95 93 92 89 89 89 90 88 88 87 91 90 89 84 71 62 63 66 64 62 56 63 65
138 134 124 120 121 116 120 118 112 116 119 115 112 112 113 112 108 108 106 105 105 104 102 99 98 99 97 97 96 95 94 94 94 93 91 87 89 88 74 77 68 71 66 66 69 71 73 74 73
144 139 130 124 121 119 121 119 113 112 115 114 112 109 109 106 105 106 104 102 104 102 102 102 102 100 99 98 99 97 96 91 89 84 87 89 89 83 83 74 68 64 67 70 73 76 75 79 81
132 132 136 136 126 122 131 124 118 115 114 113 108 105 102 101 100 100 99 99 94 94 96 96 95 94 92 93 90 88 86 83 80 81 81 76 64 67 66 60 62 70 72 77 80 79 74 82 77
119 126 133 139 134 134 132 130 116 116 114 108 100 96 95 94 96 95 95 94 92 91 86 84 84 83 81 80 80 77 69 66 68 67 65 70 68 68 63 70 69 72 74 75 70 73 78 81 76
110 120 124 128 137 141 134 135 114 117 109 106 104 100 98 97 94 92 90 88 85 85 82 78 73 70 71 69 70 66 68 66 64 66 63 66 70 72 77 81 82 81 79 76 75 78 75 72 74
100 108 115 124 129 134 135 142 121 117 112 106 106 105 105 103 97 91 87 84 79 75 72 71 69 66 69 68 67 68 68 65 64 62 64 62 65 69 71 71 71 74 77 74 74 73 72 70 74
92 100 104 105 115 120 131 146 128 111 115 110 107 106 106 104 101 97 91 87 82 80 76 73 70 70 70 68 69 69 68 66 67 66 67 65 67 66 66 70 73 72 68 67 69 71 68 67 71
75 85 96 98 101 112 126 135 124 119 117 114 110 108 108 106 103 100 98 94 89 84 81 78 74 75 73 71 70 68 68 65 64 65 66 68 60 66 66 70 70 68 62 65 67 67 67 69 68
62 71 80 86 90 90 104 124 115 118 119 114 113 111 110 105 103 102 98 94 93 89 85 80 76 77 78 74 71 68 67 68 71 71 68 67 65 65 69 70 67 65 64 65 70 69 68 69 71
50 60 67 75 83 88 88 103 101 111 118 121 117 115 110 106 102 98 94 93 91 88 87 83 79 78 79 76 72 70 69 70 67 68 70 69 69 67 68 67 66 66 66 66 68 66 70 70 74
37 44 51 59 69 78 84 85 88 99 116 119 123 119 114 106 100 100 95 89 87 87 86 82 80 78 78 74 72 71 70 67 68 63 64 68 70 68 69 68 67 65 64 63 67 69 72 72 73

GFSSGP_250_spd_144.txt.gz
Wind_Speed
53 52 54 49 43 42 46 47 49 45 44 40 38 36 36 35 35 32 30 30 29 27 27 24 24 22 23 24 21 22 26 20 19 18 19 14 14 18 15 14 17 15 15 15 17 20 20 23 25
58 59 55 53 51 46 49 48 45 47 46 44 43 39 37 37 39 38 35 34 33 31 30 28 27 26 27 27 20 21 23 20 21 19 19 18 20 20 20 20 19 19 19 19 20 21 23 27 29
53 57 58 54 51 49 56 55 53 48 44 47 44 43 39 38 39 42 40 37 35 33 34 31 28 25 24 22 21 22 24 28 24 23 24 25 22 22 21 23 23 23 22 24 27 29 34 37 36
56 55 56 53 54 54 61 58 55 52 45 45 47 44 42 42 39 42 41 42 41 36 33 32 31 28 28 29 30 27 26 22 32 28 27 25 21 21 21 26 27 29 29 30 35 39 43 45 44
58 56 53 53 56 57 62 65 60 57 52 46 47 48 43 42 41 45 43 41 40 39 35 38 29 29 33 34 34 31 33 26 30 25 25 26 21 22 24 27 31 33 33 38 41 44 46 47 51
64 60 55 52 57 62 63 71 66 63 60 57 51 49 47 47 45 44 44 43 43 42 39 38 36 34 39 38 40 40 33 33 32 26 25 26 24 25 28 31 34 37 40 43 45 47 48 48 50
67 66 60 57 61 62 65 74 67 70 65 64 60 53 53 53 50 50 50 46 47 45 42 43 41 40 38 35 32 37 39 33 32 30 28 26 23 29 32 35 38 40 41 42 43 45 47 47 55
75 72 67 60 56 61 65 72 73 71 71 63 58 58 55 56 53 51 51 53 51 50 48 46 40 39 38 37 40 40 36 35 30 28 28 31 32 38 41 44 45 45 49 50 47 49 51 53 54
84 80 69 65 64 65 76 69 76 73 71 67 61 64 63 58 57 56 54 55 54 55 52 48 44 39 39 38 39 38 39 38 40 42 38 35 38 44 47 49 50 53 51 44 48 51 50 50 52
92 85 75 75 79 77 80 72 74 74 76 70 68 63 64 62 60 59 56 56 59 58 55 52 48 46 43 42 41 37 39 41 44 45 42 41 45 49 50 51 52 53 45 54 59 53 59 61 58
98 90 87 86 87 87 85 81 81 75 74 77 71 63 64 66 64 61 59 57 60 61 60 57 53 50 50 46 41 39 39 44 45 48 48 51 51 51 43 50 50 43 50 60 63 64 65 69 72
105 97 96 94 96 94 92 89 88 80 75 81 77 67 62 61 64 65 63 61 60 62 67 61 55 53 53 51 46 44 42 43 45 46 47 50 52 47 47 54 54 57 62 65 70 74 82 81 78
110 104 103 103 102 100 101 92 92 81 80 83 82 78 71 66 64 67 66 64 61 58 65 70 60 53 53 54 52 51 49 49 51 53 53 53 54 53 51 56 62 65 65 71 76 76 78 82 85
112 110 109 109 107 106 104 100 98 82 87 88 86 84 78 75 70 65 66 67 66 63 65 69 65 62 58 58 58 57 56 55 57 60 61 62 60 58 59 65 73 75 73 78 78 80 83 81 82
115 114 113 110 111 110 111 108 91 95 93 94 93 91 85 84 79 73 72 70 69 69 68 70 69 68 66 64 62 61 61 62 63 65 67 67 68 66 68 71 76 80 83 83 82 84 90 85 82
122 118 118 116 118 117 117 104 102 103 101 100 102 99 91 90 85 81 76 74 74 76 74 71 70 71 70 70 69 68 68 68 68 71 70 70 72 75 76 78 83 84 84 85 83 89 88 80 74
123 121 121 122 122 123 119 107 110 110 110 107 109 108 98 95 91 87 83 79 82 85 80 78 76 74 72 73 73 72 72 74 74 74 73 74 76 78 79 84 86 86 88 90 87 80 80 69 71
127 127 126 126 126 125 121 112 118 116 113 110 113 113 106 100 95 92 90 88 89 89 85 80 80 80 79 79 78 77 77 77 79 80 80 81 82 85 86 90 93 93 92 88 86 73 65 66 68
138 137 134 129 129 128 124 121 118 119 116 113 114 116 110 104 101 96 97 96 95 93 89 86 87 89 87 86 86 85 83 82 83 85 85 85 85 87 89 93 92 89 85 85 68 66 73 67 71
147 141 134 132 125 130 128 125 121 118 119 118 118 119 113 107 104 99 98 101 100 98 96 93 92 93 93 92 92 89 88 88 88 88 89 86 82 88 95 94 86 79 71 63 65 65 65 68 73
129 145 141 136 133 130 130 127 121 116 113 122 120 121 118 111 106 103 100 101 102 101 99 98 98 97 97 95 94 92 89 90 90 91 91 88 87 90 86 68 55 61 64 65 64 62 64 67 72
120 123 138 141 136 135 136 130 125 119 116 120 120 118 118 114 108 106 105 104 101 101 100 98 96 95 95 95 92 92 91 91 91 88 87 86 87 66 51 53 63 64 63 69 72 73 73 77 81
108 117 117 132 140 140 138 133 124 123 118 114 114 114 117 116 112 108 104 103 102 102 98 94 95 94 91 89 87 86 87 87 88 86 83 80 66 59 63 66 74 69 72 74 76 74 77 76 75
93 103 107 115 129 140 140 137 122 124 115 103 113 114 117 118 115 109 104 102 101 100 98 95 95 92 87 86 85 84 83 82 80 75 70 67 67 59 62 65 67 70 70 69 72 74 75 72 74
79 90 97 105 111 123 135 144 122 119 115 106 113 117 116 114 109 105 99 95 94 92 89 89 88 86 83 85 81 76 77 74 72 64 55 46 51 53 63 66 68 67 67 70 72 73 73 74 72
67 75 83 89 96 100 122 142 129 110 114 113 111 113 108 105 102 99 95 90 88 86 85 87 85 81 77 76 77 71 69 63 61 51 45 42 51 57 62 65 67 66 68 75 73 73 74 74 74
54 62 69 76 82 93 107 118 114 122 119 113 112 115 109 104 103 99 96 93 88 85 85 83 79 73 68 69 66 61 58 55 54 43 38 49 57 55 64 66 69 76 78 76 76 78 76 76 75
44 51 57 63 71 80 86 96 96 112 119 117 115 114 113 107 103 98 95 92 88 86 85 83 79 73 70 70 66 61 60 58 51 51 47 53 44 66 65 67 76 83 80 75 78 79 78 74 70
33 40 46 51 59 68 75 80 86 104 112 121 120 118 115 110 106 101 95 92 90 88 87 85 83 79 76 74 71 68 65 64 56 52 50 43 59 63 70 81 83 79 77 77 77 74 76 73 75
23 29 35 40 48 52 58 66 78 95 108 118 124 124 118 114 111 105 99 94 91 87 85 86 84 80 77 77 73 70 65 66 62 51 61 66 74 80 83 80 75 73 73 76 74 74 77 74 77

GFSSGP_250_spd_150.txt.gz
Wind_Speed
45 41 42 45 41 40 41 44 44 46 45 42 39 38 36 36 35 35 34 35 34 30 30 26 25 21 19 21 18 19 19 17 18 16 19 20 18 16 15 17 18 19 17 15 16 15 18 19 27
49 49 48 46 43 46 45 45 47 45 48 45 43 42 40 38 36 33 35 37 36 33 28 27 24 25 20 19 20 21 23 22 18 16 21 21 19 20 21 22 23 22 20 18 19 22 24 26 30
53 53 53 51 49 45 54 51 46 47 49 51 48 47 45 42 40 39 37 36 35 34 31 28 27 27 24 24 25 26 27 21 22 21 20 19 22 24 26 25 22 20 18 19 20 21 23 27 29
58 56 53 52 54 54 56 54 51 51 49 51 51 50 51 47 45 45 43 40 39 36 35 32 32 30 29 27 29 27 23 23 20 22 22 23 23 27 29 23 22 19 19 19 21 25 28 33 32
59 58 58 55 60 62 64 59 59 54 53 53 50 56 55 52 50 51 47 46 45 41 40 37 34 34 34 33 31 27 26 28 27 25 25 25 26 28 29 26 22 20 20 21 24 31 37 41 38
63 62 60 58 59 65 68 67 65 63 58 53 51 49 55 55 54 53 50 50 49 45 44 40 39 37 37 36 34 33 29 31 32 30 32 31 34 33 32 31 26 25 24 25 28 37 40 44 47
70 68 63 60 62 62 69 72 70 69 65 63 56 49 48 50 49 50 53 54 54 49 45 44 41 37 37 36 38 38 32 32 32 33 35 34 34 35 35 35 30 26 27 32 33 39 45 45 46
76 76 70 64 60 58 71 72 75 73 73 67 66 64 59 49 50 49 51 52 53 52 47 47 45 40 39 41 41 40 41 35 35 34 34 38 39 33 35 36 32 33 37 37 37 41 45 39 39
83 79 74 71 68 66 71 71 78 77 74 71 67 70 67 60 55 52 51 51 53 53 51 50 48 43 40 45 45 44 43 39 35 36 39 38 39 40 37 34 35 37 41 42 43 44 46 44 49
87 83 82 83 81 78 77 76 78 80 75 71 67 66 72 69 62 60 55 52 49 51 50 48 47 47 44 50 48 45 45 44 39 39 37 38 40 39 36 37 38 39 43 43 44 46 50 52 56
92 85 91 90 93 88 84 83 82 83 79 76 73 70 66 73 69 66 66 61 57 53 52 52 51 50 50 52 52 54 53 49 46 44 40 40 39 40 40 41 41 41 42 45 48 51 55 58 61
99 96 97 95 99 96 93 94 87 85 79 82 79 76 68 67 72 73 72 68 62 59 58 58 56 55 54 55 57 59 57 54 53 51 46 45 42 42 41 39 42 45 49 52 54 56 59 62 66
101 100 104 101 98 103 104 99 96 89 86 86 83 81 76 71 69 70 70 70 67 63 61 63 65 64 62 60 60 60 58 57 55 53 51 47 46 45 46 47 48 50 54 56 59 61 64 68 71
103 106 106 106 101 104 108 107 108 89 95 92 90 86 82 79 76 73 72 69 67 65 64 64 67 69 70 67 63 59 59 58 56 53 52 50 47 47 50 51 52 55 58 61 64 66 68 73 76
115 111 109 110 111 109 114 112 108 99 103 101 97 93 89 85 83 79 74 72 72 70 70 68 67 68 70 67 63 60 59 58 57 54 53 49 48 50 51 54 57 61 63 67 69 72 76 80 83
128 122 117 113 116 119 121 103 104 113 113 109 104 102 97 91 87 85 82 78 74 72 70 73 69 69 70 69 62 60 58 58 56 55 54 52 54 55 56 59 62 65 66 70 74 77 82 86 82
135 131 128 119 123 125 125 108 114 121 119 113 108 107 103 100 93 90 88 84 80 75 73 71 69 69 70 70 63 61 57 57 57 57 56 56 58 58 59 61 65 69 72 76 80 83 86 77 70
133 133 136 132 129 130 124 119 122 125 122 116 116 112 108 106 97 94 92 90 86 83 79 76 70 68 66 68 65 64 61 62 61 60 59 60 60 61 62 65 70 73 77 81 84 82 70 60 64
118 130 131 136 137 137 129 124 128 127 125 119 116 115 114 108 104 100 97 95 90 88 86 80 75 74 71 72 71 66 64 66 65 63 62 65 65 65 66 70 74 77 81 83 75 63 57 59 63
102 114 122 136 137 143 134 129 129 130 126 123 123 119 115 114 108 104 100 99 96 93 92 87 83 79 76 77 75 70 68 70 68 66 67 68 68 67 71 75 77 79 78 62 50 52 58 62 56
94 98 108 119 133 136 135 133 131 128 130 126 122 123 122 118 113 110 105 103 101 99 96 91 87 84 84 82 78 75 74 73 73 71 70 69 70 73 75 76 78 74 48 48 51 52 59 45 53
80 90 94 102 112 124 138 132 133 131 128 130 124 124 123 123 118 113 109 106 104 101 99 96 92 90 88 86 82 80 78 76 76 74 72 73 75 75 77 78 67 51 58 54 54 55 49 53 57
69 76 79 85 92 108 123 132 130 131 130 127 125 122 124 127 123 116 111 109 107 106 101 98 96 94 92 90 87 83 80 78 78 77 77 78 77 77 75 64 60 54 50 52 57 51 49 53 62
57 62 66 72 77 85 100 119 128 138 132 129 128 127 128 125 125 121 115 112 111 109 105 102 99 97 95 92 89 87 84 82 82 81 80 79 76 62 57 53 48 54 50 52 54 53 59 66 69
42 50 52 56 61 71 88 102 115 132 132 133 129 126 126 127 123 121 118 115 112 109 106 103 101 99 96 94 92 89 86 86 83 82 82 78 69 62 52 47 53 43 47 60 57 63 64 68 70
30 34 40 46 50 61 74 87 100 117 129 133 131 126 128 126 124 120 115 114 112 108 104 104 103 101 99 96 93 90 86 85 83 80 80 79 69 60 51 47 43 44 49 53 54 63 70 72 75
23 26 29 37 43 51 63 73 83 99 118 134 135 132 131 128 126 121 115 111 110 107 102 99 102 101 99 96 94 91 87 86 83 79 78 72 67 56 51 48 52 50 51 52 57 67 68 73 75
17 20 22 27 32 40 53 62 69 87 108 121 136 135 133 131 125 121 116 111 106 103 98 94 97 96 95 93 91 88 86 84 83 77 67 58 58 51 46 48 48 52 51 50 49 61 68 71 72
12 13 13 19 23 31 43 53 64 80 95 112 122 134 135 133 126 120 115 110 105 100 94 89 90 88 86 82 81 79 78 83 83 68 62 59 53 48 50 51 55 54 60 63 66 69 73 74 75
12 11 11 13 17 27 38 47 59 68 85 105 116 128 133 132 129 125 119 111 104 99 94 85 80 83 77 75 76 76 75 79 71 61 60 59 58 55 53 55 56 58 66 71 73 75 75 80 87